Theta_e
286 285 285 284 284 283 281 282 284 284 284 284 285 285 285 284 286 286 286 285 285 286
284 284 283 283 283 282 283 282 280 278 278 278 278 279 281 285 284 285 285 284 285 284
283 282 281 279 280 279 279 281 275 273 274 274 274 276 281 283 283 283 284 284 284 283
281 281 278 277 275 273 271 272 272 272 274 281 281 282 282 282 282 282 282 283 283 283
280 278 274 272 270 271 271 270 272 275 281 281 281 281 281 280 281 281 281 282 282 282
275 276 272 270 270 273 274 273 273 281 280 281 281 281 281 281 281 281 281 281 282 282
274 274 272 273 273 275 274 273 276 280 281 281 281 281 280 281 280 280 281 282 283 282
272 270 269 269 268 269 271 273 272 271 278 280 281 281 280 280 280 280 281 282 282 282
271 269 269 268 267 268 268 268 268 278 278 278 280 282 283 282 280 281 281 281 280 281
274 273 272 272 272 271 268 268 268 268 270 274 278 281 283 284 282 281 281 280 280 280
274 273 273 273 272 271 273 276 277 276 276 276 276 281 282 283 282 281 281 280 280 279
273 273 273 273 272 272 273 273 275 278 278 278 279 281 282 282 281 281 280 281 281 280
273 273 272 273 273 274 274 275 276 276 276 276 276 280 281 282 281 280 280 280 281 282
272 272 272 273 273 272 272 273 271 273 273 274 275 276 280 281 281 280 279 280 280 280
Wind_Speed
7 4 4 5 4 4 4 4 5 5 5 4 3 4 4 1 1 2 3 4 3 1
6 6 5 5 5 4 4 4 4 4 5 4 3 1 4 2 2 2 2 2 2 2
6 5 5 4 5 5 4 5 5 4 4 2 2 1 2 2 2 3 2 3 4 4
5 5 5 5 4 4 4 4 4 5 4 4 4 4 4 4 5 6 6 6 5 7
5 5 5 4 4 4 4 3 5 4 4 5 5 5 6 6 5 6 6 7 6 7
4 5 4 4 4 4 4 4 3 5 6 6 6 7 6 6 6 6 7 7 7 6
4 4 4 4 5 5 5 5 5 6 6 6 6 7 7 7 6 7 7 7 7 7
2 1 2 3 3 3 4 5 5 4 4 6 6 5 7 7 7 7 8 8 7 7
3 3 2 2 2 2 4 4 3 8 7 8 6 12 14 10 7 7 8 7 6 6
4 3 3 4 4 4 5 3 4 3 4 7 9 14 14 14 6 7 7 7 7 7
3 4 3 3 3 3 3 4 5 6 7 7 7 16 15 14 8 7 8 8 11 11
3 3 2 2 2 2 2 2 2 4 4 6 7 11 12 12 7 8 9 8 10 10
3 3 1 1 2 1 1 3 2 2 3 4 4 9 12 10 5 7 6 7 8 14
3 2 1 1 1 1 2 2 2 3 4 5 5 5 10 11 6 4 4 5 5 4
Wind_Direction
148 145 160 160 158 166 173 167 165 174 175 191 221 216 202 154 139 204 239 250 250 204
152 154 169 166 152 151 141 131 124 129 126 114 99 85 112 90 173 170 217 209 231 212
164 156 140 130 137 133 132 140 149 135 130 126 199 199 104 160 181 209 217 225 213 226
145 153 142 142 148 151 146 148 155 160 164 189 208 204 204 206 210 224 232 230 230 240
130 138 146 150 170 159 176 175 176 171 193 214 204 205 207 206 208 221 234 223 221 224
146 158 172 171 179 180 182 188 192 212 220 217 210 211 210 211 206 220 233 233 229 227
175 182 180 188 189 184 189 190 203 211 214 215 214 215 212 212 213 218 234 234 229 224
177 170 141 144 163 169 181 202 207 205 225 234 222 218 214 212 216 223 226 232 229 221
145 148 173 181 195 193 218 214 199 226 227 230 234 234 238 219 214 218 231 226 221 230
149 159 187 189 183 210 216 197 207 228 229 248 247 245 242 245 217 214 212 223 233 240
143 143 143 158 185 207 208 210 199 211 213 228 242 249 247 244 244 228 224 232 248 241
147 144 147 163 211 224 188 218 229 245 236 223 233 249 249 243 231 230 240 234 241 237
153 132 143 244 248 225 186 244 243 260 252 256 251 266 258 252 237 235 231 231 236 233
98 102 171 88 36 302 302 334 311 270 266 258 244 250 259 258 259 246 238 236 238 231